This is the latest recevied weather packets stored in our database for station/object NI4CE-11. If no packets are shown the sender has not sent any weather packets the latest 10 day(s).
| Time | Temp. | Humidity | Pressure | Rain* | Wind** | Luminosity | Snow |
|---|---|---|---|---|---|---|---|
| 1778064584 | 20° C | 100% | 1016.1 hPa | 0 mm | - | - | - |
| 1778064284 | 20.56° C | 100% | 1016.2 hPa | 0 mm | - | - | - |
| 1778063984 | 22.22° C | 100% | 1016.1 hPa | 0 mm | - | - | - |
| 1778063684 | 20° C | 100% | 1016 hPa | 0 mm | - | - | - |
| 1778063384 | 21.11° C | 100% | 1016 hPa | 0 mm | - | - | - |
| 1778063150 | 20° C | 100% | 1016 hPa | 0 mm | - | - | - |
| 1778063084 | 22.22° C | 100% | 1016 hPa | 0 mm | - | - | - |
| 1778062784 | 20° C | 100% | 1016 hPa | 0 mm | - | - | - |
| 1778062530 | 21.11° C | 100% | 1016 hPa | 0 mm | - | - | - |
| 1778062484 | 21.11° C | 100% | 1016 hPa | 0 mm | - | - | - |
| 1778062184 | 20° C | 100% | 1016 hPa | 0 mm | - | - | - |
| 1778061884 | 20° C | 100% | 1016 hPa | 0 mm | - | - | - |
| 1778061602 | 20° C | 100% | 1015.9 hPa | 0 mm | - | - | - |
| 1778061584 | 21.67° C | 100% | 1015.8 hPa | 0 mm | - | - | - |
| 1778061301 | 20° C | 100% | 1015.9 hPa | 0 mm | - | - | - |
| 1778061284 | 20° C | 100% | 1015.9 hPa | 0 mm | - | - | - |
| 1778060984 | 20° C | 100% | 1015.9 hPa | 0 mm | - | - | - |
| 1778060756 | 20° C | 100% | 1015.9 hPa | 0 mm | - | - | - |
| 1778060684 | 22.22° C | 100% | 1015.8 hPa | 0 mm | - | - | - |
| 1778060384 | 20° C | 100% | 1015.9 hPa | 0 mm | - | - | - |
| 1778060276 | 20.56° C | 100% | 1015.9 hPa | 0 mm | - | - | - |
| 1778060084 | 20.56° C | 100% | 1015.9 hPa | 0 mm | - | - | - |
| 1778059880 | 21.11° C | 100% | 1015.7 hPa | 0 mm | - | - | - |
| 1778059784 | 21.11° C | 100% | 1015.8 hPa | 0 mm | - | - | - |
| 1778059484 | 20° C | 100% | 1015.7 hPa | 0 mm | - | - | - |
* Rain latest hour (hover to see other rain measurements)
** Current wind speed in m/s (hover to see current wind gust speed)